Regional Weather Roundup
Issued by NWS

Home | Current Version | Previous Version | Graphics & Text | Print | Product List | Glossary On
Versions: 1 2 3 4 5 6 7 8 9 10 11 12 13 14 15 16 17 18 19 20 21 22 23 24 25 26 27 28 29 30 31 32 33 34 35 36 37 38 39 40 41 42 43 44 45 46 47 48 49 50
000
ASUS43 KDTX 222310
RWRMI
MICHIGAN HOURLY REGIONAL WEATHER ROUNDUP
NATIONAL WEATHER SERVICE DETROIT/PONTIAC MI
700 PM EDT TUE JUL 22 2014

NOTE: "FAIR" INDICATES FEW OR NO CLOUDS BELOW 12,000 FEET WITH NO
SIGNIFICANT WEATHER AND/OR OBSTRUCTION TO VISIBILITY.

MIZ047>049-052>055-059>063-066>070-074>076-081>083-230000-
SOUTHEAST LOWER MICHIGAN

CITY           SKY/WX    TMP DP  RH WIND       PRES   REMARKS
ADRIAN         MOSUNNY   87  65  47 SW15      29.98F
ALMA           CLOUDY    83  66  55 SW7       29.93R
ANN ARBOR      MOSUNNY   86  65  49 SW12      29.95F
BAD AXE        SUNNY     85  65  51 SW12G23   29.90F
CARO           SUNNY     87  67  52 SW14      29.91S HX  90
DETROIT CITY   MOSUNNY   90  65  43 SW15      29.94F HX  92
DETROIT        MOSUNNY   88  65  46 SW14G22   29.96F HX  90
FLINT          SUNNY     87  66  49 SW12      29.94R
GROSSE ILE     SUNNY     84  72  65 S10       29.94F
HILLSDALE      SUNNY     85  67  53 SW8       29.99F
HOWELL         SUNNY     85  64  49 SW12      29.95S

CITY           SKY/WX    TMP DP  RH WIND       PRES   REMARKS
JACKSON        SUNNY     85  68  56 SW9G18    29.97F
LAMBERTVILLE   MOSUNNY   88  63  42 S9        29.98F
LANSING        SUNNY     84  67  56 S13       29.94F
LAPEER         FAIR      86  64  48 SW10      29.94R
MASON          SUNNY     84  68  59 S3        29.95S
MONROE         MOSUNNY   90  64  43 S14       29.95F HX  91
MT. CLEMENS    MOSUNNY   89  66  46 SW13G20   29.92F HX  91
PONTIAC        MOSUNNY   87  64  46 SW13      29.94F
PORT HOPE        N/A     86  65  49 SW9G16    29.87F
PORT HURON     SUNNY     84  68  58 S10       29.93F
TRI CITIES     PTSUNNY   86  67  52 SW14      29.92R
TROY           MOSUNNY   89  61  39 SW15G22   29.95F
SAGINAW HB     PTSUNNY   86  64  48 SW12      29.90F
$$
MIZ043>046-050>051-056>058-064>065-071>073-077>080-230000-
SOUTHWEST LOWER MICHIGAN

CITY           SKY/WX    TMP DP  RH WIND       PRES   REMARKS
BATTLE CREEK   SUNNY     85  67  54 SW13      29.97S
BENTON HARBOR  CLOUDY    84  69  60 SW13      29.96R
BIG RAPIDS     CLOUDY    81  66  61 SW12G22   29.93S
COLDWATER      SUNNY     85  67  54 SW10G16   29.97F
FREMONT        CLOUDY    81  65  57 SW16      29.92F
HOLLAND        CLOUDY    84  69  60 SW13      29.96R
GRAND RAPIDS   CLOUDY    86  70  58 SW12      29.95R HX  90
IONIA          MOCLDY    84  68  57 SW8       29.94R
KALAMAZOO      MOSUNNY   86  68  54 SW16      29.97R
LUDINGTON      SUNNY     80  69  69 SW17G26   29.89F
MARSHALL       MOSUNNY   83  68  59 SW12      29.96S
MOUNT PLEASANT CLOUDY    84  67  55 SW7       29.92R
MUSKEGON       CLOUDY    80  67  64 S16G25    29.93F
SOUTH HAVEN    CLOUDY    84  71  65 SW7       29.96R
$$
MIZ016>042-230000-
NORTHERN LOWER MICHIGAN

CITY           SKY/WX    TMP DP  RH WIND       PRES   REMARKS
ALPENA         PTSUNNY   84  68  58 SW9       29.84S
BEAVER ISLAND  SUNNY     68  63  84 W9        29.89R
BELLAIRE       CLOUDY    83  70  64 SW6       29.85S
CADILLAC       MOSUNNY   80  70  72 SW13G20   29.93R
CHARLEVOIX     CLOUDY    76  68  74 W20G25    29.90R
FRANKFORT      CLOUDY    78  66  67 SW14G23   29.88F
GAYLORD        CLOUDY    81  70  69 SW15      29.89S
GRAYLING       PTSUNNY   82  70  67 SW13G20   29.91R
HARBOR SPRINGS CLOUDY    75  67  77 W18G26    29.87R
HOUGHTON LAKE  CLOUDY    80  70  71 SW10      29.92R
MANISTEE       PTSUNNY   81  68  65 SW7       29.90S
OSCODA         CLOUDY    84  66  53 SW9       29.87R
PELLSTON       CLOUDY    77  68  73 W18G25    29.87R
ROGERS CITY    PTSUNNY   83  74  73 W14G20    29.84S
TRAVERSE CITY  PTSUNNY   85  69  58 VRB7      29.85S
$$
MIZ007>008-015-230000-
EASTERN UPPER MICHIGAN

CITY           SKY/WX    TMP DP  RH WIND       PRES   REMARKS
KINROSS        CLOUDY    72  64  78 NW14      29.85R
MACKINAC ISLAN PTSUNNY   68  64  86 W13       29.86S
NEWBERRY       MOSUNNY   71  60  67 MISG      29.88R
S. S. MARIE    CLOUDY    66  57  72 NW18G28   29.87R
MUNISING         N/A     64  53  67 NW20G31   29.96R
$$
MIZ004>006-011>014-085-230000-
CENTRAL UPPER MICHIGAN

CITY           SKY/WX    TMP DP  RH WIND       PRES   REMARKS
MANISTIQUE     MOSUNNY   74  63  68 NW18G31   29.90R
ESCANABA       CLOUDY    81  63  54 NW9G18    29.90R
MENOMINEE      SUNNY     84  64  51 N13G18    29.89R
SAWYER-GWINN   CLOUDY    70  59  68 N15G21    29.97R
$$
MIZ001>003-009>011-084-230000-
WESTERN UPPER MICHIGAN

CITY           SKY/WX    TMP DP  RH WIND       PRES   REMARKS
IRON MOUNTAIN  RAIN      68  64  87 NW21G38   29.99R FOG
HOUGHTON       CLOUDY    64  55  72 N14G23    30.02R
COPPER HARBOR    N/A     59  54  83 N24G32    29.99R
IRONWOOD       PTSUNNY   68  57  68 NE7       30.05R
$$

ABBREVIATIONS USED IN REMARKS
   TC - TEMPERATURE IN CELSIUS
  WCI - WIND CHILL INDEX
   HX - HEAT INDEX
  VSB - VISIBILITY



USA.gov is the U.S. government's official web portal to all federal, state and local government web resources and services.